Gold Coast Seaway Observation History
Time Wind Speed Temp Pressure Rel. Hum Rain
24/02:30am W 6-7 kts 11.7°c 1018.5 hPa 94% 0.0mm
24/02:00am W 6 kts 11.7°c 1018.7 hPa 94% 0.0mm
24/01:30am SW 6-7 kts 11.8°c 1018.9 hPa 94% 0.0mm
24/01:00am W 6-7 kts 11.8°c 1019.0 hPa 95% 0.0mm
24/12:30am W 6 kts 11.8°c 1019.1 hPa 94% 0.0mm
24/12:00am W 5-6 kts 11.5°c 1019.1 hPa 93% 0.0mm
Time Wind Speed Temp Pressure Rel. Hum Rain
23/11:30pm W 5-6 kts 11.9°c 1019.2 hPa 90% 0.0mm
23/11:00pm SW 2-5 kts 12.1°c 1019.4 hPa 86% 0.0mm
23/10:30pm WSW 5-6 kts 12.9°c 1019.4 hPa 86% 0.0mm
23/10:00pm W 5-6 kts 13.3°c 1019.4 hPa 83% 0.0mm
23/09:30pm WSW 6-7 kts 13.3°c 1019.5 hPa 84% 0.0mm
23/09:00pm SW 6-7 kts 13.8°c 1019.4 hPa 80% 0.0mm
23/08:30pm W 6-7 kts 14.8°c 1019.2 hPa 76% 0.0mm
23/08:00pm NW 6-7 kts 15.6°c 1019.1 hPa 69% 0.0mm
23/07:30pm NNE 10-13 kts 17.2°c 1019.0 hPa 62% 0.0mm
23/07:00pm NNE 11-14 kts 17.2°c 1018.8 hPa 62% 0.0mm
23/06:30pm NNE 11-14 kts 17.2°c 1018.6 hPa 61% 0.0mm
23/06:00pm NNE 11-14 kts 17.0°c 1018.4 hPa 64% 0.0mm
23/05:30pm NNE 10-13 kts 17.1°c 1018.2 hPa 64% 0.0mm
23/05:00pm NE 11-13 kts 17.7°c 1017.8 hPa 60% 0.0mm
23/04:30pm NE 11-14 kts 18.8°c 1017.8 hPa 54% 0.0mm
23/04:00pm NNE 13-15 kts 18.9°c 1017.8 hPa 54% 0.0mm
23/03:30pm NE 11-14 kts 19.9°c 1017.8 hPa 51% 0.0mm
23/03:00pm NE 13-15 kts 19.9°c 1017.8 hPa 49% 0.0mm
23/02:30pm NE 11-13 kts 19.5°c 1017.9 hPa 53% 0.0mm
23/02:00pm ENE 9-11 kts 20.3°c 1018.1 hPa 50% 0.0mm
23/01:30pm ENE 9-11 kts 20.3°c 1018.3 hPa 46% 0.0mm
23/01:00pm ENE 8-9 kts 20.8°c 1018.8 hPa 53% 0.0mm
23/12:30pm ENE 7-8 kts 20.7°c 1019.3 hPa 51% 0.0mm
23/12:00pm ENE 5-7 kts 21.0°c 1020.0 hPa 49% 0.0mm
23/11:30am SE 4-5 kts 20.3°c 1020.6 hPa 49% 0.0mm
23/11:00am SE 4-5 kts 20.1°c 1021.0 hPa 48% 0.0mm
23/10:30am SSE 5-6 kts 19.8°c 1021.5 hPa 47% 0.0mm
23/10:00am SE 5-6 kts 19.5°c 1021.8 hPa 48% 0.0mm
23/09:30am SW 4-5 kts 17.3°c 1022.2 hPa 51% 0.0mm
23/09:00am W 5-6 kts 16.2°c 1022.3 hPa 60% 0.0mm
23/08:30am WSW 5-6 kts 14.8°c 1022.1 hPa 68% 0.0mm
23/08:00am W 5-6 kts 13.4°c 1021.9 hPa 77% 0.0mm
23/07:30am WSW 6-7 kts 11.9°c 1021.6 hPa 85% 0.0mm
23/07:00am WSW 7-8 kts 10.9°c 1021.5 hPa 90% 0.0mm
23/06:30am WSW 7 kts 10.7°c 1021.3 hPa 90% 0.0mm
23/06:00am SW 7-8 kts 10.8°c 1021.0 hPa 89% 0.0mm
23/05:30am SW 7-8 kts 10.7°c 1020.5 hPa 89% 0.0mm
23/05:00am WSW 7-8 kts 10.7°c 1020.3 hPa 88% 0.0mm
23/04:30am WSW 7-8 kts 10.8°c 1020.2 hPa 87% 0.0mm
23/04:00am SW 7-8 kts 10.8°c 1020.1 hPa 85% 0.0mm
23/03:30am SW 8-9 kts 10.9°c 1020.3 hPa 84% 0.0mm
23/03:00am SW 8-9 kts 11.0°c 1020.4 hPa 83% 0.0mm
23/02:30am SW 8-9 kts 11.1°c 1020.5 hPa 82% 0.0mm
23/02:00am SW 8-9 kts 11.1°c 1020.7 hPa 81% 0.0mm
23/01:30am SW 7-9 kts 11.1°c 1021.0 hPa 81% 0.0mm
23/01:00am SW 6-8 kts 11.2°c 1021.2 hPa 79% 0.0mm
23/12:30am SW 7-8 kts 11.4°c 1021.5 hPa 78% 0.0mm
23/12:00am SW 7-8 kts 11.4°c 1021.5 hPa 77% 0.0mm
Time Wind Speed Temp Pressure Rel. Hum Rain
22/11:30pm SW 7-9 kts 11.8°c 1021.6 hPa 76% 0.0mm
22/11:00pm SW 7-8 kts 11.7°c 1021.7 hPa 75% 0.0mm
22/10:30pm SW 7-8 kts 11.9°c 1021.8 hPa 74% 0.0mm
22/10:00pm SW 7-9 kts 12.3°c 1021.9 hPa 73% 0.0mm
22/09:30pm SW 7-8 kts 12.6°c 1021.9 hPa 71% 0.0mm
22/09:00pm SW 7-8 kts 12.9°c 1022.0 hPa 69% 0.0mm
22/08:30pm SW 7-8 kts 13.3°c 1022.0 hPa 67% 0.0mm
22/08:00pm SW 6-7 kts 13.5°c 1021.9 hPa 67% 0.0mm
22/07:30pm SSW 6-8 kts 13.8°c 1021.8 hPa 65% 0.0mm
22/07:00pm SE 9-10 kts 15.7°c 1021.6 hPa 60% 0.0mm
22/06:30pm SE 8-10 kts 16.0°c 1021.3 hPa 59% 0.0mm
22/06:00pm SE 10-14 kts 15.9°c 1021.2 hPa 60% 0.0mm
22/05:30pm SE 9-12 kts 16.3°c 1021.0 hPa 59% 0.0mm
22/05:00pm SE 10-13 kts 16.4°c 1020.8 hPa 59% 0.0mm
22/04:30pm SE 11-14 kts 17.3°c 1020.7 hPa 54% 0.0mm
22/04:00pm SE 12-15 kts 17.8°c 1020.7 hPa 51% 0.0mm
22/03:30pm SE 13-15 kts 18.6°c 1020.5 hPa 55% 0.0mm
22/03:00pm ESE 13-15 kts 18.8°c 1020.6 hPa 49% 0.0mm
22/02:30pm ESE 12-15 kts 19.3°c 1020.7 hPa 47% 0.0mm
22/02:00pm SE 11-13 kts 19.8°c 1020.9 hPa 42% 0.0mm
22/01:30pm SE 11-14 kts 20.2°c 1021.3 hPa 42% 0.0mm
22/01:00pm SSE 10-13 kts 20.2°c 1021.6 hPa 42% 0.0mm
22/12:30pm SSE 11-14 kts 20.1°c 1022.0 hPa 42% 0.0mm
22/12:00pm SSE 13-17 kts 20.3°c 1022.3 hPa 40% 0.0mm
22/11:30am SSE 15-18 kts 19.9°c 1022.9 hPa 40% 0.0mm
22/11:00am SSE 15-18 kts 19.5°c 1023.3 hPa 39% 0.0mm
22/10:30am SSE 15-18 kts 19.6°c 1023.6 hPa 44% 0.0mm
22/10:00am SSE 15-18 kts 18.7°c 1023.8 hPa 45% 0.0mm
22/09:30am S 11-16 kts 18.0°c 1023.9 hPa 47% 0.0mm
22/09:00am S 9-14 kts 16.8°c 1024.0 hPa 51% 0.0mm
22/08:30am SSW 8-11 kts 14.7°c 1023.7 hPa 55% 0.0mm
22/08:00am SSW 8-10 kts 13.6°c 1023.5 hPa 61% 0.0mm
22/07:30am SSW 6-7 kts 11.9°c 1023.3 hPa 75% 0.0mm
22/07:00am SW 7-9 kts 10.3°c 1023.3 hPa 79% 0.0mm
22/06:30am SW 7-9 kts 10.2°c 1023.0 hPa 79% 0.0mm
22/06:00am SW 7-9 kts 10.3°c 1022.8 hPa 78% 0.0mm
22/05:30am SW 7-8 kts 10.4°c 1022.5 hPa 79% 0.0mm
22/05:00am SW 7-9 kts 10.5°c 1022.4 hPa 77% 0.0mm
22/04:30am SW 8-9 kts 10.5°c 1022.3 hPa 77% 0.0mm
22/04:00am SW 7-9 kts 10.6°c 1022.2 hPa 75% 0.0mm
22/03:30am SW 8-10 kts 10.5°c 1022.3 hPa 75% 0.0mm
22/03:00am SW 8-9 kts 10.6°c 1022.4 hPa 74% 0.0mm
22/02:30am SW 7-9 kts 10.7°c 1022.5 hPa 73% 0.0mm
22/02:00am SW 7-9 kts 10.7°c 1022.5 hPa 72% 0.0mm
22/01:30am SW 7-10 kts 10.6°c 1022.6 hPa 72% 0.0mm
22/01:00am SW 7-9 kts 10.3°c 1022.8 hPa 72% 0.0mm
22/12:30am SW 7-9 kts 10.3°c 1022.8 hPa 72% 0.0mm
22/12:00am SW 8-9 kts 10.4°c 1023.0 hPa 71% 0.0mm